Hourly Weather Draguti

Today, 30 September, Wednesday

Time Temperature Precipitation Wind Pressure Humidity
00:00 +12°C° 0 mm 4 mps 747 mmHg 90%
01:00 +12°C° 0 mm 4 mps 747 mmHg 92%
02:00 +12°C° 0 mm 3 mps 747 mmHg 93%
03:00 +11°C° 0 mm 4 mps 746 mmHg 94%
04:00 +11°C° 0 mm 4 mps 746 mmHg 95%
05:00 +11°C° 0 mm 4 mps 746 mmHg 96%
06:00 +11°C° 0 mm 4 mps 746 mmHg 93%
07:00 +10°C° 0 mm 5 mps 746 mmHg 90%
08:00 +10°C° 0 mm 5 mps 746 mmHg 85%
09:00 +12°C° 0 mm 5 mps 746 mmHg 83%
10:00 +12°C° 0 mm 5 mps 745 mmHg 82%
11:00 +13°C° 0 mm 5 mps 745 mmHg 80%
12:00 +14°C° 0 mm 5 mps 745 mmHg 77%
13:00 +14°C° 0 mm 5 mps 745 mmHg 75%
14:00 +15°C° 0 mm 5 mps 745 mmHg 73%
15:00 +15°C° 0 mm 5 mps 745 mmHg 72%
16:00 +15°C° 0 mm 4 mps 745 mmHg 71%
17:00 +15°C° 0 mm 4 mps 745 mmHg 70%
18:00 +14°C° 0 mm 4 mps 745 mmHg 69%
19:00 +13°C° 0 mm 4 mps 745 mmHg 68%
20:00 +13°C° 0 mm 4 mps 745 mmHg 67%
21:00 +12°C° 0 mm 4 mps 745 mmHg 69%
22:00 +11°C° 0 mm 4 mps 745 mmHg 70%
23:00 +11°C° 0 mm 4 mps 745 mmHg 72%

Tomorrow, 1 October, Thursday

Time Temperature Precipitation Wind Pressure Humidity
00:00 +10°C° 0 mm 4 mps 744 mmHg 71%
01:00 +10°C° 0 mm 4 mps 744 mmHg 71%
02:00 +10°C° 0 mm 4 mps 744 mmHg 70%
03:00 +10°C° 0 mm 4 mps 744 mmHg 70%
04:00 +10°C° 0 mm 4 mps 744 mmHg 69%
05:00 +8°C° 0 mm 5 mps 743 mmHg 68%
06:00 +9°C° 0 mm 5 mps 743 mmHg 65%
07:00 +10°C° 0 mm 5 mps 743 mmHg 62%
08:00 +10°C° 0 mm 5 mps 743 mmHg 59%
09:00 +13°C° 0 mm 6 mps 743 mmHg 57%
10:00 +15°C° 0 mm 6 mps 743 mmHg 55%
11:00 +17°C° 0 mm 7 mps 743 mmHg 53%
12:00 +16°C° 0 mm 7 mps 743 mmHg 59%
13:00 +16°C° 0 mm 6 mps 743 mmHg 64%
14:00 +16°C° 0 mm 6 mps 743 mmHg 70%
15:00 +16°C° 0 mm 5 mps 743 mmHg 70%
16:00 +16°C° 0 mm 5 mps 743 mmHg 70%
17:00 +17°C° 0 mm 4 mps 743 mmHg 71%
18:00 +15°C° 0.1 mm 4 mps 744 mmHg 75%
19:00 +14°C° 0.1 mm 4 mps 744 mmHg 79%
20:00 +13°C° 0.1 mm 4 mps 745 mmHg 83%
21:00 +13°C° 0 mm 4 mps 745 mmHg 82%
22:00 +13°C° 0 mm 4 mps 745 mmHg 82%
23:00 +12°C° 0 mm 4 mps 745 mmHg 82%

Day after tomorrow, 2 October, Friday

Time Temperature Precipitation Wind Pressure Humidity
00:00 +12°C° 0 mm 4 mps 745 mmHg 81%
01:00 +12°C° 0 mm 4 mps 745 mmHg 80%
02:00 +11°C° 0 mm 4 mps 745 mmHg 79%
03:00 +11°C° 0 mm 4 mps 745 mmHg 81%
04:00 +10°C° 0 mm 4 mps 745 mmHg 83%
05:00 +9°C° 0 mm 5 mps 745 mmHg 85%
06:00 +9°C° 0 mm 5 mps 745 mmHg 82%
07:00 +9°C° 0 mm 5 mps 745 mmHg 78%
08:00 +10°C° 0 mm 5 mps 745 mmHg 75%
09:00 +12°C° 0 mm 5 mps 745 mmHg 73%
10:00 +14°C° 0 mm 6 mps 745 mmHg 72%
11:00 +15°C° 0 mm 6 mps 746 mmHg 70%
12:00 +15°C° 0 mm 6 mps 746 mmHg 70%
13:00 +15°C° 0 mm 5 mps 746 mmHg 70%
14:00 +15°C° 0 mm 5 mps 746 mmHg 69%
15:00 +15°C° 0 mm 4 mps 746 mmHg 70%
16:00 +15°C° 0 mm 4 mps 746 mmHg 71%
17:00 +16°C° 0 mm 3 mps 746 mmHg 72%
18:00 +14°C° 0 mm 4 mps 746 mmHg 75%
19:00 +13°C° 0 mm 4 mps 746 mmHg 79%
20:00 +13°C° 0 mm 4 mps 746 mmHg 82%
21:00 +13°C° 0 mm 4 mps 746 mmHg 83%
22:00 +12°C° 0 mm 4 mps 746 mmHg 84%
23:00 +12°C° 0 mm 4 mps 746 mmHg 85%

3 October, Saturday

Time Temperature Precipitation Wind Pressure Humidity
00:00 +11°C° 0 mm 3 mps 746 mmHg 87%
01:00 +11°C° 0 mm 3 mps 746 mmHg 90%
02:00 +10°C° 0 mm 3 mps 746 mmHg 92%
03:00 +10°C° 0 mm 3 mps 746 mmHg 91%
04:00 +10°C° 0 mm 3 mps 746 mmHg 90%
05:00 +10°C° 0 mm 4 mps 746 mmHg 89%
06:00 +10°C° 0 mm 4 mps 746 mmHg 89%
07:00 +11°C° 0 mm 4 mps 746 mmHg 89%
08:00 +11°C° 0 mm 4 mps 746 mmHg 90%
09:00 +12°C° 0 mm 4 mps 746 mmHg 85%
10:00 +13°C° 0 mm 4 mps 746 mmHg 81%
11:00 +15°C° 0 mm 4 mps 746 mmHg 77%
12:00 +16°C° 0 mm 5 mps 746 mmHg 73%
13:00 +17°C° 0 mm 5 mps 746 mmHg 69%
14:00 +19°C° 0 mm 5 mps 746 mmHg 65%
15:00 +17°C° 0 mm 5 mps 745 mmHg 68%
16:00 +17°C° 0 mm 5 mps 745 mmHg 70%
17:00 +16°C° 0 mm 5 mps 745 mmHg 73%
18:00 +15°C° 0 mm 5 mps 745 mmHg 76%
19:00 +15°C° 0 mm 5 mps 746 mmHg 79%
20:00 +14°C° 0 mm 5 mps 746 mmHg 82%
21:00 +14°C° 0 mm 5 mps 745 mmHg 84%
22:00 +13°C° 0 mm 6 mps 745 mmHg 85%
23:00 +13°C° 0 mm 6 mps 745 mmHg 86%

4 October, Sunday

Time Temperature Precipitation Wind Pressure Humidity
00:00 +13°C° 0 mm 6 mps 745 mmHg 85%
01:00 +13°C° 0 mm 6 mps 745 mmHg 84%
02:00 +12°C° 0 mm 7 mps 745 mmHg 83%
03:00 +12°C° 0.3 mm 7 mps 745 mmHg 85%
04:00 +12°C° 0.3 mm 7 mps 745 mmHg 87%
05:00 +12°C° 0.3 mm 7 mps 744 mmHg 89%
06:00 +12°C° 0.2 mm 7 mps 744 mmHg 89%
07:00 +14°C° 0.2 mm 7 mps 744 mmHg 88%
08:00 +14°C° 0.2 mm 7 mps 745 mmHg 87%
09:00 +15°C° 0.2 mm 7 mps 744 mmHg 86%
10:00 +15°C° 0.2 mm 8 mps 744 mmHg 84%
11:00 +16°C° 0.2 mm 9 mps 744 mmHg 83%
12:00 +16°C° 0.1 mm 8 mps 744 mmHg 82%
13:00 +16°C° 0.1 mm 8 mps 744 mmHg 81%
14:00 +16°C° 0.1 mm 8 mps 743 mmHg 80%
15:00 +16°C° 0 mm 8 mps 743 mmHg 80%
16:00 +16°C° 0 mm 7 mps 743 mmHg 81%
17:00 +16°C° 0 mm 7 mps 743 mmHg 82%
18:00 +16°C° 0 mm 7 mps 743 mmHg 84%
19:00 +15°C° 0 mm 6 mps 743 mmHg 86%
20:00 +15°C° 0 mm 6 mps 743 mmHg 88%
21:00 +15°C° 0 mm 6 mps 743 mmHg 90%
22:00 +14°C° 0 mm 5 mps 743 mmHg 92%
23:00 +14°C° 0 mm 5 mps 743 mmHg 94%

5 October, Monday

Time Temperature Precipitation Wind Pressure Humidity
00:00 +14°C° 0 mm 4 mps 743 mmHg 95%
01:00 +14°C° 0 mm 4 mps 743 mmHg 96%
02:00 +13°C° 0 mm 4 mps 743 mmHg 96%
03:00 +13°C° 0 mm 4 mps 743 mmHg 96%
04:00 +13°C° 0 mm 3 mps 743 mmHg 96%
05:00 +13°C° 0 mm 3 mps 742 mmHg 96%
06:00 +13°C° 0 mm 3 mps 742 mmHg 95%
07:00 +13°C° 0 mm 3 mps 742 mmHg 94%
08:00 +14°C° 0 mm 3 mps 742 mmHg 93%
09:00 +15°C° 0 mm 4 mps 742 mmHg 89%
10:00 +17°C° 0 mm 4 mps 742 mmHg 85%
11:00 +18°C° 0 mm 4 mps 741 mmHg 81%
12:00 +19°C° 0 mm 5 mps 741 mmHg 78%
13:00 +20°C° 0 mm 5 mps 741 mmHg 75%
14:00 +21°C° 0 mm 6 mps 740 mmHg 73%
15:00 +20°C° 0 mm 6 mps 740 mmHg 76%
16:00 +20°C° 0 mm 5 mps 739 mmHg 79%
17:00 +19°C° 0 mm 5 mps 739 mmHg 82%
18:00 +17°C° 0.3 mm 5 mps 739 mmHg 86%
19:00 +17°C° 0.3 mm 5 mps 739 mmHg 89%
20:00 +16°C° 0.3 mm 5 mps 739 mmHg 93%
21:00 +16°C° 0.1 mm 5 mps 739 mmHg 92%
22:00 +17°C° 0.1 mm 4 mps 739 mmHg 92%
23:00 +15°C° 0.1 mm 4 mps 738 mmHg 92%
Show more